#timestamp,LO_Frequency,Hit,StdDev 
1588705535.7,286047019.8,P
1588705555.6,286047020.2,P
1588705575.4,286047021.8,P
1588705595.3,286047021.8,Y
1588705615.1,286047000.4,P
1588705635.8,286046999.9,N
1588705655.7,286047000.5,N
1588705675.5,286046999.9,N
1588705695.4,286047001.4,N
1588705715.2,286047003.0,N
1588705735.0,286047003.0,N
1588705735.9,286047003.0,N
1588705755.8,286047001.8,N
1588705775.6,286047001.7,N
1588705795.4,286047000.3,N
1588705815.3,286047001.2,N
1588705835.1,286046998.5,N
1588705855.9,286047000.0,N
1588705875.7,286047003.9,N
1588705895.5,286047006.0,N
1588705915.4,286047001.3,N
1588705935.2,286046999.7,N
1588705955.0,286047000.2,N
1588705955.9,286047000.2,N
1588705975.8,286047000.1,N
1588705995.6,286047002.3,N
1588706015.5,286047002.1,N
1588706035.3,286047004.2,N
1588706055.1,286047002.3,N
1588706075.9,286047000.5,N
1588706095.7,286047000.7,N
1588706115.5,286047000.7,N
1588706135.4,286047001.0,N
1588706155.2,286047000.3,N
1588706175.1,286046999.8,N
1588706176.0,286046999.8,N
1588706195.8,286047002.8,N
1588706215.6,286047000.1,N
1588706235.5,286046998.9,N
1588706255.3,286046997.0,N
1588706275.2,286046993.9,Y
1588706295.9,286046990.4,P
1588706315.7,286046989.2,N
1588706335.6,286046989.7,N
1588706355.4,286046987.0,N
1588706375.3,286046985.3,N
1588706395.1,286046988.4,N
1588706396.0,286046988.4,N
1588706415.8,286046988.0,N
1588706435.7,286046988.4,N
1588706455.5,286046985.9,Y
1588706475.3,286046997.4,P
1588706495.2,286046998.2,N
1588706515.0,286047001.4,N
1588706515.9,286047001.4,N
1588706535.8,286047005.7,N
1588706555.6,286047004.9,N
1588706575.4,286047005.0,N
1588706595.3,286047004.9,N
1588706615.1,286047004.9,N
1588706635.8,286047004.6,N
1588706655.7,286047004.7,N
1588706675.5,286047005.4,N
1588706695.4,286047003.5,N
1588706715.2,286047002.6,N
1588706735.0,286047004.3,N
1588706735.9,286047004.3,N
1588706755.8,286047003.5,N
1588706775.6,286047003.5,N
1588706795.5,286047001.9,N
1588706815.3,286047001.6,N
1588706835.1,286047004.4,N
1588706855.9,286047003.1,N
1588706875.7,286047004.2,N
1588706895.5,286047003.6,N
1588706915.4,286047003.2,N
1588706935.2,286047003.9,N
1588706955.1,286047000.4,N
1588706956.0,286047000.4,N
1588706975.8,286046999.3,N
1588706995.6,286046997.5,N
1588707015.5,286046998.5,N
1588707035.3,286047002.3,N
1588707055.1,286047001.8,N
1588707075.9,286047001.3,N
1588707095.7,286047003.2,N
1588707115.6,286047003.7,N
1588707135.4,286047002.9,N
1588707155.2,286047007.6,Y
1588707175.1,286047004.7,P
1588707176.0,286047004.7,P
1588707195.8,286047007.6,P
1588707215.7,286047005.1,N
1588707235.5,286047005.9,Y
1588707255.3,286047001.0,P
1588707275.2,286046998.1,N
1588707295.0,286047001.2,N
1588707295.9,286047001.2,N
1588707315.7,286046998.1,N
1588707335.6,286046998.5,N
1588707355.4,286047000.3,N
1588707375.3,286046998.1,N
1588707395.1,286046999.1,N
1588707396.0,286046999.1,N
1588707415.8,286046998.4,N
1588707435.7,286046997.3,N
1588707455.5,286046992.9,Y
1588707475.4,286046989.1,P
1588707495.2,286046987.5,N
1588707515.0,286046989.5,N
1588707515.9,286046989.5,N
1588707535.8,286046990.6,N
1588707555.6,286046994.4,N
1588707575.4,286046995.7,N
1588707595.3,286046993.9,N
1588707615.1,286046990.6,N
1588707635.9,286046990.0,N
1588707655.7,286046987.3,Y
1588707675.5,286046994.4,P
1588707695.4,286046992.5,P
1588707715.2,286046991.0,P
1588707735.1,286046989.4,Y
1588707736.0,286046989.4,P
1588707755.8,286046995.6,N
1588707775.6,286046995.7,N
1588707795.5,286046993.4,N
1588707815.3,286046996.1,N
1588707835.2,286046993.4,N
1588707855.9,286046993.3,Y
1588707875.7,286047001.7,P
1588707895.6,286046999.8,N
1588707915.4,286047000.7,N
1588707935.3,286046998.6,N
1588707955.1,286047001.1,N
1588707956.0,286047001.1,N
1588707975.8,286047001.1,N
1588707995.7,286046998.6,N
1588708015.5,286047000.3,N
1588708035.3,286047004.4,N
1588708055.2,286047003.9,N
1588708075.0,286047003.8,N
1588708075.9,286047003.8,N
1588708095.8,286047004.2,N
1588708115.6,286047003.6,N
1588708135.4,286047001.5,N
1588708155.3,286047003.6,N
1588708175.1,286047003.8,N
1588708195.8,286047004.2,N
1588708215.7,286047005.2,N
1588708235.5,286047006.7,N
1588708255